Location: Paddlesworth
(51.1000°N, 1.1333°E)
Time: 23:12:09
(UTC+00:00)

BREEZE-M DEB (TANK) - Pass Details

Date: 11 May 2021
Orbit: 276 x 16788 km, 49.5° (Epoch: 23 June)

Event Time Altitude Azimuth Distance (km) Brightness Sun altitude
Rises 20:08:11 0° 264° (W) 3,016 6.9 -5.3°
Reaches altitude 10° 20:11:05 10° 261° (W) 1,478 5.2 -5.7°
Maximum altitude 20:13:40 60° 180° (S) 340 1.1 -6.0°
Drops below altitude 10° 20:15:38 10° 97° (E) 1,115 3.4 -6.2°
Enters shadow 20:16:18 - 95° (E) 1,468 4.0 -6.3°
